Weather History for KBAD - November, 2011

Change the Weather History Date:

Wednesday, November 16, 2011

  Actual Average Record
Temperature  
Mean Temperature 59 °F -  
Max Temperature 66 °F 63 °F 75 °F (2001)
Min Temperature 50 °F 44 °F 23 °F (1997)
Degree Days  
Heating Degree Days 6    
Growing Degree Days 9 (Base 50)    
Moisture  
Dew Point 59 °F    
Average Humidity 90    
Maximum Humidity 100    
Minimum Humidity 56    
Precipitation  
Precipitation 0.02 in - - ()
Sea Level Pressure  
Sea Level Pressure 29.91 in    
Wind  
Wind Speed 4 mph (NNE)    
Max Wind Speed 13 mph    
Max Gust Speed 20 mph    
Visibility 9 miles    
Events      
Averages and records for this station are not official NWS values.
T = Trace of Precipitation, MM = Missing Value Source: NWS Daily Summary

Daily Weather History Graph

Daily Weather History Graph

Search for Another Location

Airport or City:

Trip Planner

Search our weather history database for the weather conditions in past years. The results will help you decide how hot, cold, wet, or windy it might be!

Date:

Astronomy

Nov. 16, 2011 Rise Set
Actual Time 6:44 AM CST 5:13 PM CST
Civil Twilight 6:18 AM CST 5:39 PM CST
Nautical Twilight 5:49 AM CST 6:09 PM CST
Astronomical Twilight 5:19 AM CST 6:38 PM CST
Moon 10:25 PM CST (11/16) 11:22 AM CST (11/16)
Length of Visible Light 11h 20m
Length of Day
10h 28m
Waning Gibbous, 70% of the Moon is Illuminated
Nov 16
Waning Gibbous
Nov 18
Last Quarter
Nov 25
New
Dec 2
First Quarter
Dec 10
Full

Hourly Weather History & Observations

Time (CST) Temp. Dew Point Humidity Pressure Visibility Wind Dir Wind Speed Gust Speed Precip Events Conditions
12:11 AM 66.2 °F 66.2 °F 100% 29.73 in 10.0 mi Calm Calm - N/A   Light Drizzle
12:25 AM 66.2 °F 66.2 °F 100% 29.73 in 10.0 mi North 3.5 mph - N/A   Overcast
12:55 AM 65.1 °F 65.1 °F 100% 29.73 in 10.0 mi Calm Calm - 0.00 in   Overcast
1:10 AM 64.4 °F 64.4 °F 100% 29.73 in 10.0 mi Calm Calm - N/A   Overcast
1:42 AM 64.4 °F 64.4 °F 100% 29.71 in 10.0 mi Calm Calm - N/A   Overcast
1:55 AM 64.8 °F 64.8 °F 100% 29.72 in 10.0 mi Calm Calm - N/A   Overcast
2:20 AM 64.4 °F 64.4 °F 100% 29.73 in 10.0 mi North 3.5 mph - N/A   Overcast
2:48 AM 64.4 °F 64.4 °F 100% 29.73 in 10.0 mi NNW 3.5 mph - N/A   Overcast
2:55 AM 64.8 °F 64.8 °F 100% 29.73 in 10.0 mi Calm Calm - N/A   Overcast
3:55 AM 64.9 °F 64.9 °F 100% 29.74 in 10.0 mi Calm Calm - 0.01 in   Overcast
4:55 AM 65.1 °F 65.1 °F 100% 29.75 in 10.0 mi Calm Calm - N/A   Overcast
5:06 AM 64.4 °F 64.4 °F 100% 29.75 in 10.0 mi Calm Calm - N/A   Overcast
5:55 AM 65.3 °F 65.3 °F 100% 29.77 in 10.0 mi Calm Calm - N/A   Overcast
6:28 AM 64.4 °F 64.4 °F 100% 29.77 in 10.0 mi Calm Calm - N/A   Mostly Cloudy
6:55 AM 63.3 °F 63.3 °F 100% 29.79 in 5.0 mi Calm Calm - N/A   Scattered Clouds
7:09 AM 64.4 °F 64.4 °F 100% 29.78 in 9.0 mi Calm Calm - N/A   Mostly Cloudy
7:14 AM 64.4 °F 64.4 °F 100% 29.78 in 10.0 mi Calm Calm - N/A   Mostly Cloudy
7:55 AM 65.7 °F 65.7 °F 100% 29.82 in 10.0 mi WNW 3.5 mph - N/A   Overcast
8:13 AM 66.2 °F 66.2 °F 100% 29.83 in 10.0 mi NW 3.5 mph - N/A   Overcast
8:20 AM 66.2 °F 64.4 °F 94% 29.83 in 10.0 mi Calm Calm - N/A   Overcast
8:47 AM 66.2 °F 64.4 °F 94% 29.84 in 10.0 mi NNW 5.8 mph - N/A   Overcast
8:50 AM 66.2 °F 64.4 °F 94% 29.84 in 10.0 mi NNW 5.8 mph - N/A   Overcast
8:55 AM 66.0 °F 64.9 °F 96% 29.84 in 10.0 mi NW 5.8 mph - N/A   Overcast
9:53 AM 66.2 °F 64.4 °F 94% 29.87 in 5.0 mi NNE 4.6 mph - N/A   Light Drizzle
9:55 AM 66.0 °F 65.1 °F 97% 29.87 in 2.0 mi NNE 4.6 mph - 0.00 in   Light Drizzle
10:12 AM 66.2 °F 66.2 °F 100% 29.87 in 1.5 mi NNE 5.8 mph - N/A   Light Drizzle
10:29 AM 66.2 °F 66.2 °F 100% 29.88 in 3.0 mi NE 4.6 mph - N/A   Light Drizzle
11:09 AM 66.2 °F 64.4 °F 94% 29.88 in 10.0 mi East 8.1 mph - N/A   Overcast
11:20 AM 66.2 °F 64.4 °F 94% 29.88 in 10.0 mi ENE 6.9 mph - N/A   Overcast
11:26 AM 66.2 °F 64.4 °F 94% 29.88 in 10.0 mi ENE 8.1 mph - N/A   Overcast
11:30 AM 66.2 °F 64.4 °F 94% 29.88 in 10.0 mi NE 9.2 mph - N/A   Overcast
11:55 AM 64.0 °F 62.6 °F 95% 29.89 in 10.0 mi NNE 11.5 mph - 0.00 in   Overcast
12:02 PM 64.4 °F 62.6 °F 94% 29.89 in 1.5 mi NNE 11.5 mph - N/A   Light Drizzle
12:13 PM 62.6 °F 62.6 °F 100% 29.89 in - NE 10.4 mph - N/A   Light Drizzle
12:34 PM 62.6 °F 60.8 °F 94% 29.89 in 2.0 mi ENE 8.1 mph - N/A   Light Drizzle
12:40 PM 62.6 °F 62.6 °F 100% 29.88 in 6.0 mi ENE 9.2 mph - N/A   Overcast
12:55 PM 63.7 °F 61.5 °F 93% 29.88 in 10.0 mi East 12.7 mph - 0.01 in   Overcast
1:37 PM 62.6 °F 59.0 °F 88% 29.89 in 10.0 mi East 11.5 mph - N/A   Overcast
1:55 PM 63.7 °F 59.5 °F 86% 29.89 in 10.0 mi ENE 8.1 mph - N/A   Overcast
2:21 PM 64.4 °F 59.0 °F 83% 29.90 in 10.0 mi ENE 12.7 mph - N/A   Overcast
2:55 PM 64.6 °F 58.5 °F 80% 29.91 in 10.0 mi ENE 9.2 mph - N/A   Overcast
3:55 PM 64.4 °F 58.3 °F 80% 29.92 in 10.0 mi ENE 6.9 mph - N/A   Mostly Cloudy
4:38 PM 64.4 °F 57.2 °F 77% 29.94 in 10.0 mi NNE 9.2 mph - N/A   Overcast
4:55 PM 63.5 °F 57.9 °F 82% 29.96 in 10.0 mi NE 12.7 mph - N/A   Overcast
5:36 PM 60.8 °F 57.2 °F 88% 29.99 in 10.0 mi NE 10.4 mph - N/A   Overcast
5:55 PM 59.7 °F 55.8 °F 87% 30.01 in 10.0 mi NNE 10.4 mph 18.4 mph N/A   Overcast
6:11 PM 59.0 °F 55.4 °F 88% 30.03 in 10.0 mi NNE 10.4 mph - N/A   Light Drizzle
6:21 PM 59.0 °F 55.4 °F 88% 30.03 in 10.0 mi NE 11.5 mph 18.4 mph N/A   Overcast
6:41 PM 59.0 °F 55.4 °F 88% 30.05 in 10.0 mi NE 9.2 mph - N/A   Overcast
6:52 PM 59.0 °F 53.6 °F 82% 30.07 in 10.0 mi NE 11.5 mph - N/A   Overcast
6:55 PM 58.3 °F 54.1 °F 86% 30.07 in 10.0 mi NNE 8.1 mph - 0.00 in   Overcast
6:56 PM 59.0 °F 53.6 °F 82% 30.07 in 10.0 mi NNE 6.9 mph - N/A   Overcast
6:58 PM 59.0 °F 53.6 °F 82% 30.07 in 10.0 mi NNE 8.1 mph - N/A   Light Drizzle
7:10 PM 57.2 °F 53.6 °F 88% 30.08 in 10.0 mi NNE 8.1 mph - N/A   Overcast
7:18 PM 57.2 °F 53.6 °F 88% 30.09 in 10.0 mi NNE 10.4 mph - N/A   Light Drizzle
7:27 PM 57.2 °F 53.6 °F 88% 30.09 in 10.0 mi NE 11.5 mph 19.6 mph N/A   Overcast
7:48 PM 57.2 °F 50.0 °F 77% 30.11 in 10.0 mi NNE 10.4 mph 18.4 mph N/A   Overcast
7:55 PM 57.0 °F 49.3 °F 75% 30.12 in 10.0 mi NNE 12.7 mph 17.3 mph 0.00 in   Overcast
8:04 PM 57.2 °F 48.2 °F 72% 30.13 in 10.0 mi NNE 9.2 mph - N/A   Overcast
8:10 PM 57.2 °F 46.4 °F 67% 30.13 in 10.0 mi NNE 11.5 mph 17.3 mph N/A   Overcast
8:55 PM 56.3 °F 42.4 °F 60% 30.17 in 10.0 mi NNE 12.7 mph 18.4 mph N/A   Overcast
9:55 PM 54.1 °F 38.7 °F 56% 30.21 in 10.0 mi NNE 6.9 mph - N/A   Partly Cloudy
10:55 PM 52.7 °F 38.8 °F 59% 30.23 in 10.0 mi NNE 11.5 mph 19.6 mph N/A   Mostly Cloudy
11:55 PM 50.5 °F 36.1 °F 58% 30.27 in 10.0 mi North 6.9 mph - N/A   Mostly Cloudy